SCP
1 1 1 1 0 0 0 1 0 0 0 0 0 0 0 0 0 0 0 0 0 0 0 0 0 0 0 0 0 0 0 0 0 0 0 0 0 0
1 1 1 1 1 0 0 1 1 0 0 0 0 0 0 0 0 0 0 0 0 0 0 0 0 0 0 0 0 0 0 0 0 0 0 0 0 0
1 1 1 1 1 1 1 1 1 1 0 0 0 0 0 0 0 0 0 0 0 0 0 0 0 0 0 0 0 0 0 0 0 0 0 0 0 0
1 1 1 1 1 1 1 1 1 1 1 0 0 0 0 0 0 0 0 0 0 0 0 0 0 0 0 0 0 0 0 0 0 0 0 0 0 0
1 1 1 1 1 1 1 1 1 1 1 1 0 0 0 0 0 0 0 0 0 0 0 0 0 0 0 0 0 0 0 0 0 0 0 0 0 0
1 1 1 1 1 1 1 1 1 1 1 1 1 0 0 0 0 0 0 0 0 0 0 0 0 0 0 0 0 0 -0 -0 0 0 0 0 0 0
1 1 1 1 1 1 1 1 1 1 1 1 1 1 0 0 0 0 0 0 0 0 0 0 0 0 0 0 0 0 -0 -0 -0 -0 0 0 0 0
1 1 1 1 0 0 0 0 0 1 1 1 1 1 0 0 0 0 0 0 0 0 0 0 0 0 0 0 0 0 0 -0 -0 -0 -0 0 0 0
1 1 1 1 0 0 0 0 0 0 0 0 0 0 0 0 0 0 0 0 0 0 0 0 0 0 0 0 0 0 0 0 -0 -0 0 0 0 0
1 1 1 1 0 0 0 0 0 0 0 0 0 0 0 0 0 0 0 0 0 0 0 0 0 0 0 0 0 0 0 0 0 0 0 0 0 0
1 1 1 0 0 0 0 0 0 0 0 0 0 0 0 0 0 0 0 0 0 0 0 0 0 0 0 0 0 0 0 0 0 0 0 0 0 0
1 1 0 0 0 0 0 0 0 0 0 0 0 0 0 0 0 0 0 0 0 0 0 0 0 0 0 0 0 0 0 0 0 0 0 0 0 0
1 0 0 0 0 0 0 0 0 0 0 0 0 0 0 0 0 0 0 0 0 0 0 0 0 0 0 0 0 0 0 0 0 0 0 0 0 0
0 0 0 0 0 0 0 0 0 0 0 0 0 0 0 0 0 0 0 0 0 0 0 0 0 0 0 0 0 0 0 0 0 0 0 0 0 0
0 0 0 0 0 0 0 0 0 0 0 0 0 0 0 0 0 0 0 0 0 0 0 0 0 0 0 0 0 0 0 0 0 0 0 0 0 0
0 0 0 0 0 0 0 0 0 0 0 0 0 0 0 0 0 0 0 0 0 0 0 0 0 0 0 0 0 0 0 0 0 0 0 0 0 0
0 0 0 0 0 0 0 0 0 0 0 0 0 0 0 0 0 0 0 0 0 0 0 0 0 0 0 0 0 0 0 0 0 0 0 0 0 0
0 0 0 0 0 0 0 0 0 0 0 0 0 0 0 0 0 0 0 0 0 0 0 0 0 0 0 0 0 0 0 0 0 0 0 0 0 0
0 0 0 0 0 0 0 0 0 0 0 0 0 0 0 0 0 0 0 0 0 0 0 0 0 0 0 0 0 0 0 0 0 0 0 0 0 0
0 0 0 0 0 0 0 0 0 0 0 0 0 0 0 0 0 0 0 0 0 0 0 0 0 0 0 0 0 0 0 0 0 0 0 0 0 0
0 0 0 0 0 0 0 0 0 0 0 0 0 0 0 0 0 0 0 0 0 0 0 0 0 0 0 0 0 0 0 0 0 0 0 0 0 0
0 0 0 0 0 0 0 0 0 0 0 0 0 0 0 0 0 0 0 0 0 0 0 0 0 0 0 0 0 0 0 0 0 0 0 0 0 0
0 0 0 0 0 0 0 0 0 0 0 0 0 0 0 0 0 0 0 0 0 0 0 0 0 0 0 0 0 0 0 0 0 0 0 0 0 0
Wind_Speed
2 2 1 1 1 1 2 2 2 2 1 1 1 1 2 2 4 4 4 5 5 4 4 4 3 3 3 3 3 3 3 2 2 1 1 1 1 0
2 2 2 1 1 1 1 1 1 1 1 1 2 3 2 3 4 4 4 6 6 6 5 4 4 4 4 3 3 3 3 2 2 1 1 1 0 0
2 2 1 1 1 1 1 1 1 1 2 1 1 2 3 3 3 3 4 4 4 7 7 6 5 5 5 4 3 3 3 2 2 1 1 1 1 1
2 2 2 1 1 2 1 1 1 1 2 2 2 3 3 3 4 4 4 3 4 6 8 8 7 6 6 5 4 3 3 2 2 1 1 1 1 1
1 2 2 1 2 2 2 2 1 2 2 2 2 2 2 3 3 3 3 2 4 6 7 8 8 8 7 6 6 5 4 4 3 2 2 1 1 1
1 1 1 2 2 2 2 2 2 2 2 2 2 2 2 2 2 2 2 2 2 3 4 6 7 9 8 8 7 7 6 5 5 4 3 2 2 1
1 2 2 1 1 1 2 1 2 2 2 2 2 2 2 2 3 3 3 2 2 2 3 4 4 4 5 8 9 9 8 7 6 6 5 4 3 2
2 2 2 2 0 0 0 1 2 3 2 2 2 2 3 3 3 3 2 2 2 2 3 4 4 5 5 5 9 11 10 9 8 8 7 6 5 4
3 2 3 2 1 0 1 1 1 2 3 2 3 3 3 3 3 4 3 3 3 3 2 3 3 4 4 6 11 12 11 11 10 9 8 7 7 6
3 3 2 1 1 1 2 2 2 2 3 3 3 3 3 3 4 4 4 3 3 3 3 4 3 3 3 4 10 12 12 12 11 11 10 9 8 7
3 2 1 1 0 1 2 2 2 3 3 3 3 4 4 5 4 2 3 3 4 4 3 3 3 3 3 3 6 11 12 12 11 11 11 10 9 7
2 1 1 2 2 2 2 2 4 3 3 3 3 3 4 5 6 5 4 4 4 3 3 3 3 2 2 3 3 5 7 9 10 11 11 11 9 6
2 2 1 3 2 3 4 4 5 4 3 3 3 3 3 3 4 4 4 4 4 4 3 3 3 3 3 2 3 4 5 5 6 7 9 11 10 8
3 2 1 3 5 5 5 5 5 4 3 3 3 3 4 4 4 4 5 5 5 6 5 4 3 4 4 4 3 3 5 5 6 6 6 8 9 10
3 4 4 5 5 5 6 6 4 3 4 4 4 4 4 4 4 4 4 5 5 6 5 4 4 4 4 4 4 3 3 4 5 5 5 6 6 6
4 5 4 4 5 5 4 4 5 4 5 5 4 3 3 3 3 3 3 3 4 4 4 4 4 5 5 5 4 4 3 4 4 5 5 5 5 6
3 3 3 3 3 3 3 4 4 4 5 5 4 3 3 3 3 3 3 3 4 4 4 3 4 4 5 5 4 4 4 3 4 5 5 5 6 7
2 3 3 3 4 4 4 3 4 4 4 4 4 4 4 4 4 3 3 4 4 4 4 3 3 2 3 4 5 5 4 4 4 4 4 5 5 5
3 4 4 4 4 4 4 4 4 4 3 4 4 4 4 3 3 3 3 4 4 4 4 3 4 4 5 6 5 6 5 4 4 4 5 5 5 4
4 4 4 4 4 4 4 3 3 3 3 4 4 4 4 3 3 3 3 4 4 4 4 4 4 5 6 6 4 3 6 5 4 4 4 3 2 2
5 4 4 4 3 3 3 3 3 3 3 4 4 4 4 3 3 4 4 5 5 4 5 5 5 6 4 3 3 2 2 6 5 4 4 3 3 3
4 5 4 3 3 3 3 3 4 3 4 4 4 4 3 3 4 5 4 4 4 4 5 4 3 3 3 4 5 4 3 2 4 5 5 5 4 4
4 4 3 3 3 3 3 4 5 4 3 4 4 4 4 4 4 4 4 4 4 4 4 3 3 2 3 4 4 4 4 4 2 3 4 6 7 7
Wind_Direction
218 216 220 235 218 211 198 193 189 199 216 195 173 150 145 135 155 146 145 152 157 155 156 150 144 140 139 127 118 109 100 92 92 96 91 80 109 167
210 214 223 229 223 242 236 220 200 190 208 193 184 180 182 168 167 156 156 159 170 174 173 170 163 155 145 139 132 128 124 117 114 109 121 93 88 159
220 211 224 235 259 265 270 232 192 187 186 192 160 163 171 160 171 175 176 173 173 181 183 181 174 165 159 158 158 151 149 148 139 129 110 125 136 145
234 228 228 239 258 282 271 258 227 210 187 187 175 177 184 176 186 202 193 179 177 179 180 177 176 175 173 173 173 174 181 176 173 162 141 137 135 146
242 242 244 242 247 253 257 256 249 237 198 190 197 184 186 189 187 214 205 197 195 178 182 183 186 185 184 184 184 189 198 197 193 187 179 171 166 155
259 258 253 246 254 250 243 238 242 233 210 200 202 191 184 188 180 209 221 215 214 192 191 185 188 191 194 193 194 195 200 203 203 198 193 189 192 183
272 268 270 263 291 277 260 263 252 240 223 206 220 197 194 192 209 223 229 222 225 200 193 200 188 195 199 202 203 202 201 203 203 198 194 192 193 190
260 261 251 220 197 213 271 306 268 249 246 229 232 222 213 209 212 220 223 222 243 212 198 220 197 200 200 201 200 200 202 204 204 202 198 195 194 198
263 255 262 264 228 241 268 266 299 275 239 232 238 244 223 213 212 221 222 228 240 227 208 236 212 211 207 203 192 197 202 204 204 205 203 200 200 201
260 258 254 252 282 249 263 256 261 274 252 241 236 243 242 219 217 222 222 230 238 235 212 235 227 224 218 201 195 197 202 205 207 209 210 208 207 207
265 272 261 168 219 248 254 258 261 273 279 279 253 233 228 227 222 228 233 229 241 236 211 220 229 226 218 207 200 201 205 206 208 211 212 213 211 209
265 216 211 205 192 196 237 262 269 269 273 271 262 240 226 223 219 214 223 234 243 243 215 212 225 215 231 213 199 200 207 212 212 213 211 211 209 207
288 269 209 187 208 231 247 252 257 270 270 260 247 240 236 232 226 220 223 228 236 244 227 203 226 225 221 230 213 206 200 204 207 217 216 212 209 204
287 297 285 236 241 248 251 254 251 258 259 256 253 244 236 235 235 228 228 231 233 244 251 225 230 227 232 237 236 208 206 203 199 205 207 205 212 215
291 298 288 263 254 251 246 244 235 245 251 249 247 249 243 236 233 228 228 231 241 250 246 236 236 239 233 240 239 226 216 213 199 198 198 197 201 201
284 290 274 257 255 253 245 236 231 238 246 249 252 252 251 247 237 235 235 234 239 248 245 246 241 239 247 245 236 233 219 209 204 202 201 206 204 203
275 270 264 253 251 252 241 235 234 234 243 249 252 249 248 248 248 242 238 238 239 245 246 241 240 243 240 240 244 238 226 221 212 198 200 215 212 204
244 264 268 262 254 253 250 245 244 243 246 247 251 251 243 243 247 245 237 236 241 245 243 236 229 249 262 254 234 237 236 231 215 206 203 213 221 207
234 258 263 259 259 261 262 257 257 257 255 253 255 259 259 254 250 249 240 242 247 250 247 236 225 223 244 253 246 216 223 230 216 215 215 216 223 208
248 253 258 262 262 262 266 270 268 266 265 263 262 263 264 269 269 258 251 250 252 254 252 242 230 229 237 248 254 245 214 216 215 219 219 221 225 210
256 261 262 265 265 267 269 271 267 264 266 265 264 265 264 266 268 266 261 260 254 257 259 255 247 237 236 237 248 243 221 211 216 212 206 206 215 214
253 258 259 264 268 270 270 272 273 269 267 262 265 268 269 267 268 269 268 266 260 260 267 270 253 234 230 236 244 246 239 229 227 227 221 206 205 217
272 272 269 270 267 266 268 269 269 270 270 272 270 266 266 266 266 269 268 267 273 276 279 281 273 254 241 237 246 247 234 229 227 224 236 232 228 238